Sella Ness, United Kingdom

8:57 AM GMT on November 21, 2017 (GMT +0000)
Scatsta

Weather History for EGPM - February, 2013

Change the Weather History Date:

Monday, February 25, 2013

  Actual Average Record
Temperature  
Mean Temperature 39 °F -  
Max Temperature 46 °F 43 °F 50 °F (1998)
Min Temperature 32 °F 37 °F 24 °F (2016)
Degree Days  
Heating Degree Days 26    
Moisture  
Dew Point 32 °F    
Average Humidity 80    
Maximum Humidity 93    
Minimum Humidity 70    
Precipitation  
Precipitation 0.00 in - - ()
Sea Level Pressure  
Sea Level Pressure 30.56 in    
Wind  
Wind Speed 6 mph ()    
Max Wind Speed 16 mph    
Max Gust Speed -    
Visibility 6.2 miles    
Events      
Averages and records for this station are not official NWS values.
T = Trace of Precipitation, MM = Missing Value Source: Averaged Metar Reports

Daily Weather History Graph

Daily Weather History Graph

Search for Another Location

Airport or City:

Trip Planner

Search our weather history database for the weather conditions in past years. The results will help you decide how hot, cold, wet, or windy it might be!

Date:

Astronomy

Feb. 25, 2013 Rise Set
Actual Time 7:15 AM GMT 5:21 PM GMT
Civil Twilight 6:33 AM GMT 6:04 PM GMT
Nautical Twilight 5:44 AM GMT 6:53 PM GMT
Astronomical Twilight 4:55 AM GMT 7:42 PM GMT
Moon 5:31 PM GMT (2/25) 6:32 AM GMT (2/25)
Length of Visible Light 11h 31m
Length of Day
10h 05m
Full, 100% of the Moon is Illuminated
Feb 25
Full
Feb 25
Full
Mar 4
Last Quarter
Mar 11
New
Mar 19
First Quarter

Hourly Weather History & Observations

Time (GMT) Temp. Windchill Dew Point Humidity Pressure Visibility Wind Dir Wind Speed Gust Speed Precip Events Conditions
12:20 AM 35.6 °F - 32.0 °F 87% 30.54 in 6.2 mi SSW 2.3 mph - N/A   Mostly Cloudy
12:50 AM 35.6 °F - 30.2 °F 81% 30.54 in 6.2 mi SSW 2.3 mph - N/A   Mostly Cloudy
1:20 AM 33.8 °F - 30.2 °F 87% 30.54 in 6.2 mi South 2.3 mph - N/A   Partly Cloudy
1:50 AM 32.0 °F 28.7 °F 28.4 °F 87% 30.54 in 6.2 mi South 3.5 mph - N/A   Scattered Clouds
2:20 AM 32.0 °F - 28.4 °F 87% 30.54 in 6.2 mi South 2.3 mph - N/A   Overcast
2:50 AM 33.8 °F - 30.2 °F 87% 30.54 in 6.2 mi South 1.2 mph - N/A   Mostly Cloudy
3:20 AM 32.0 °F - 28.4 °F 87% 30.54 in 6.2 mi South 1.2 mph - N/A   Mostly Cloudy
3:50 AM 37.4 °F 32.1 °F 30.2 °F 75% 30.54 in 6.2 mi South 6.9 mph - N/A   Mostly Cloudy
4:20 AM 35.6 °F 29.9 °F 30.2 °F 81% 30.54 in 6.2 mi South 6.9 mph - N/A   Mostly Cloudy
4:50 AM 35.6 °F 29.9 °F 28.4 °F 75% 30.54 in 6.2 mi South 6.9 mph - N/A   Scattered Clouds
5:20 AM 33.8 °F 30.8 °F 28.4 °F 81% 30.54 in 6.2 mi SSW 3.5 mph - N/A   Scattered Clouds
5:50 AM 32.0 °F - 26.6 °F 80% 30.57 in 6.2 mi East 2.3 mph - N/A   Partly Cloudy
6:20 AM 32.0 °F - 28.4 °F 87% 30.57 in 6.2 mi SSW 2.3 mph - N/A   Partly Cloudy
6:50 AM 32.0 °F - 28.4 °F 87% 30.54 in 6.2 mi SSE 2.3 mph - N/A   Partly Cloudy
7:20 AM 35.6 °F 28.0 °F 30.2 °F 81% 30.54 in 6.2 mi SSE 10.4 mph - N/A   Partly Cloudy
7:50 AM 35.6 °F 27.5 °F 30.2 °F 81% 30.54 in 6.2 mi SSE 11.5 mph - N/A   Partly Cloudy
8:20 AM 37.4 °F 30.3 °F 32.0 °F 81% 30.54 in - SSE 10.4 mph - N/A   Clear
8:50 AM 37.4 °F 30.8 °F 32.0 °F 81% 30.57 in - SSE 9.2 mph - N/A   Clear
9:20 AM 41.0 °F 36.4 °F 35.6 °F 81% 30.57 in - South 6.9 mph - N/A   Clear
9:50 AM 41.0 °F 36.4 °F 35.6 °F 81% 30.57 in 6.2 mi SW 6.9 mph - N/A   Partly Cloudy
10:20 AM 42.8 °F 38.0 °F 35.6 °F 76% 30.57 in 6.2 mi SSW 8.1 mph - N/A   Partly Cloudy
10:50 AM 42.8 °F 37.0 °F 33.8 °F 70% 30.57 in 6.2 mi South 10.4 mph - N/A   Partly Cloudy
11:20 AM 41.0 °F 35.2 °F 33.8 °F 76% 30.57 in 6.2 mi South 9.2 mph - N/A   Partly Cloudy
11:50 AM 42.8 °F 36.2 °F 33.8 °F 70% 30.57 in 6.2 mi SSW 12.7 mph - N/A   Scattered Clouds
12:20 PM 42.8 °F 35.8 °F 33.8 °F 70% 30.57 in 6.2 mi SW 13.8 mph - N/A   Scattered Clouds
12:50 PM 42.8 °F 36.6 °F 35.6 °F 76% 30.57 in 6.2 mi SSW 11.5 mph - N/A   Mostly Cloudy
1:20 PM 42.8 °F 36.6 °F 33.8 °F 70% 30.57 in 6.2 mi SSW 11.5 mph - N/A   Mostly Cloudy
1:50 PM 42.8 °F 35.1 °F 33.8 °F 70% 30.57 in 6.2 mi SW 16.1 mph - N/A   Mostly Cloudy
2:20 PM 42.8 °F 36.6 °F 33.8 °F 70% 30.57 in 6.2 mi SSW 11.5 mph - N/A   Scattered Clouds
2:50 PM 46.4 °F 40.4 °F 37.4 °F 71% 30.54 in 6.2 mi SSW 13.8 mph - N/A   Scattered Clouds
3:20 PM 42.8 °F 35.4 °F 33.8 °F 70% 30.57 in 6.2 mi SSW 15.0 mph - N/A   Mostly Cloudy
3:50 PM 42.8 °F 35.1 °F 33.8 °F 70% 30.57 in 6.2 mi SW 16.1 mph - N/A   Mostly Cloudy
4:20 PM 42.8 °F 35.4 °F 33.8 °F 70% 30.57 in 6.2 mi SW 15.0 mph - N/A   Mostly Cloudy
4:50 PM 41.0 °F 33.5 °F 33.8 °F 76% 30.57 in 6.2 mi SW 13.8 mph - N/A   Scattered Clouds
5:20 PM 39.2 °F 31.6 °F 33.8 °F 81% 30.57 in 6.2 mi SW 12.7 mph - N/A   Scattered Clouds
5:50 PM 39.2 °F 33.0 °F 33.8 °F 81% 30.57 in 6.2 mi SSW 9.2 mph - N/A   Partly Cloudy
6:20 PM 37.4 °F 32.1 °F 32.0 °F 81% 30.57 in 6.2 mi SSW 6.9 mph - N/A   Partly Cloudy
7:20 PM 37.4 °F 29.8 °F 33.8 °F 87% 30.57 in 6.2 mi SSW 11.5 mph - N/A   Unknown
7:50 PM 37.4 °F 29.8 °F 33.8 °F 87% 30.57 in 6.2 mi SSW 11.5 mph - N/A   Unknown
8:20 PM 35.6 °F 29.2 °F 33.8 °F 93% 30.60 in 6.2 mi SSW 8.1 mph - N/A   Unknown
8:50 PM 37.4 °F 30.8 °F 33.8 °F 87% 30.60 in 6.2 mi SSW 9.2 mph - N/A   Unknown
9:20 PM 37.4 °F 30.8 °F 33.8 °F 87% 30.60 in 6.2 mi SSW 9.2 mph - N/A   Unknown
9:50 PM 37.4 °F 30.3 °F 33.8 °F 87% 30.60 in 6.2 mi SSW 10.4 mph - N/A   Unknown
10:20 PM 39.2 °F 31.6 °F 35.6 °F 87% 30.57 in 6.2 mi SSW 12.7 mph - N/A   Unknown
10:50 PM 37.4 °F 29.8 °F 33.8 °F 87% 30.57 in 6.2 mi SSW 11.5 mph - N/A   Unknown
11:20 PM 39.2 °F 31.2 °F 35.6 °F 87% 30.57 in 6.2 mi SSW 13.8 mph - N/A   Unknown
11:50 PM 39.2 °F 31.2 °F 35.6 °F 87% 30.57 in 6.2 mi SSW 13.8 mph - N/A   Unknown